Погода в Тугулыме

Россия / Свердловская область     57°03′32″N   64°38′28″E
темп.,
°C
ветер,
м/с
пор.,
м/с
влажн.,
%
обл.,
%
осадки,
мм/ч
давл.,
гПа
погр.,
м
22 апреля, чт
чт2223:00+4юв377610 0.0 1035137
02:00+3юв26805 0.0 1035111
05:00+3ююв26835 0.0 1036108
08:00+7ююв48635 0.0 1036373
11:00+12ююв56465 0.0 10361029
14:00+15ю573451 0.0 10342052
17:00+15ю4733100 0.0 10332163
20:00+11ю3648100 0.0 1033112
23 апреля, пт
пт2323:00+8ююв4967100 0.0 1034192
02:00+7ююв41167100 0.0 1033326
05:00+7ююв41169100 0.0 1033324
08:00+8ю41066100 0.0 1033401
11:00+12ююз51044100 0.0 10331502
14:00+13юз5847100 0.0 10321782
17:00+11ююз4864100 0.1 10321372
20:00+9ююз3769100 0.3 1032332
24 апреля, сб
сб2423:00+8ююв1184100 0.9 103217
02:00+8вюв248599 0.4 1030126
05:00+6ююв2470100 0.4 102983
08:00+8ююв3652100 0.0 1028320
11:00+11ю3452100 0.0 1027965
14:00+12ююв4645100 0.0 10251906
17:00+9ююв4765100 0.1 10251294
20:00+8юв2668100 0.4 1024422
25 апреля, вс
вс2523:00+7в3763100 0.4 1022193
02:00+6вюв31159100 0.0 1021389
05:00+5вюв3960100 0.0 1020372
08:00+7вюв4958100 0.0 10191008
11:00+11вюв5745100 0.0 10181038
14:00+14юв573465 0.0 10161848
17:00+15юв573489 0.0 10152100
20:00+11вюв3748100 0.0 1014117
26 апреля, пн
пн2623:00+9ю31156100 0.0 1013316
02:00+7зюз2787100 0.1 1013188
05:00+7зюз288490 0.8 1014436
08:00+8з587393 0.1 10151077
11:00+9зюз4758100 0.3 10161501
14:00+10зюз575076 0.1 10171669
17:00+13зюз573790 0.1 10172317
20:00+9юз374899 0.0 1017144